Time,TemperatureF,DewpointF,PressureIn,WindDirection,WindDirectionDegrees,WindSpeedMPH,WindSpeedGustMPH,Humidity,HourlyPrecipIn,Conditions,Clouds,dailyrainin,SoftwareType,DateUTC
2013-06-26 08:05:00,70.7,66.0,29.93,SW,225,0.0,0.0,85,0.00,,,0.00,WUHU216HW,2013-06-26 12:05:00,
2013-06-26 08:10:00,70.9,66.5,29.93,SW,225,0.0,0.0,86,0.00,,,0.00,WUHU216HW,2013-06-26 12:10:00,
2013-06-26 08:15:00,70.9,66.5,29.92,SSW,203,0.0,0.0,86,0.00,,,0.00,WUHU216HW,2013-06-26 12:15:00,
2013-06-26 08:20:00,71.1,66.3,29.92,SSE,158,0.0,0.0,85,0.00,,,0.00,WUHU216HW,2013-06-26 12:20:00,
2013-06-26 08:25:00,71.1,66.3,29.93,SSE,158,0.0,0.0,85,0.00,,,0.00,WUHU216HW,2013-06-26 12:25:00,
2013-06-26 08:30:00,71.3,66.5,29.93,West,270,0.7,1.3,85,0.00,,,0.00,WUHU216HW,2013-06-26 12:30:00,
2013-06-26 08:35:00,71.6,66.9,29.93,West,270,0.0,1.3,85,0.00,,,0.00,WUHU216HW,2013-06-26 12:35:00,
2013-06-26 08:40:00,72.0,67.2,29.94,WSW,248,0.4,0.7,85,0.00,,,0.00,WUHU216HW,2013-06-26 12:40:00,
2013-06-26 08:45:00,72.4,67.6,29.94,NNE,23,0.7,1.1,85,0.00,,,0.00,WUHU216HW,2013-06-26 12:45:00,
2013-06-26 08:50:00,72.4,67.6,29.94,West,270,0.2,2.2,85,0.00,,,0.00,WUHU216HW,2013-06-26 12:50:00,
2013-06-26 08:55:00,72.4,67.6,29.95,NNW,338,0.4,2.2,85,0.00,,,0.00,WUHU216HW,2013-06-26 12:55:00,
2013-06-26 09:00:00,72.4,67.3,29.95,ESE,113,0.4,0.9,84,0.00,,,0.00,WUHU216HW,2013-06-26 13:00:00,
2013-06-26 09:05:00,72.4,67.2,29.95,SSE,158,0.0,0.9,84,0.00,,,0.00,WUHU216HW,2013-06-26 13:05:00,
2013-06-26 09:10:00,72.4,67.2,29.95,SSE,158,0.0,0.4,84,0.00,,,0.00,WUHU216HW,2013-06-26 13:10:00,
2013-06-26 09:15:00,72.4,67.2,29.95,ESE,113,0.7,0.7,84,0.00,,,0.00,WUHU216HW,2013-06-26 13:15:00,
2013-06-26 09:20:00,72.7,67.6,29.95,ESE,113,0.4,0.7,84,0.00,,,0.00,WUHU216HW,2013-06-26 13:20:00,
2013-06-26 09:25:00,72.9,68.1,29.94,SSE,158,0.0,0.9,85,0.00,,,0.00,WUHU216HW,2013-06-26 13:25:00,
2013-06-26 09:30:00,73.3,68.5,29.95,West,270,0.0,0.9,85,0.00,,,0.00,WUHU216HW,2013-06-26 13:30:00,
2013-06-26 09:35:00,73.8,69.4,29.96,SW,225,0.7,1.1,86,0.00,,,0.00,WUHU216HW,2013-06-26 13:35:00,
2013-06-26 09:40:00,74.5,69.8,29.95,ESE,113,0.7,1.6,85,0.00,,,0.00,WUHU216HW,2013-06-26 13:40:00,
2013-06-26 09:45:00,74.7,69.6,29.94,SSE,158,0.2,1.6,84,0.00,,,0.00,WUHU216HW,2013-06-26 13:45:00,
2013-06-26 09:50:00,74.9,69.8,29.95,WSW,248,0.4,1.1,84,0.00,,,0.00,WUHU216HW,2013-06-26 13:50:00,
2013-06-26 09:55:00,74.7,69.2,29.94,WSW,248,0.0,0.9,83,0.00,,,0.00,WUHU216HW,2013-06-26 13:55:00,
2013-06-26 10:00:00,74.9,69.4,29.94,ESE,113,1.3,1.3,83,0.00,,,0.00,WUHU216HW,2013-06-26 14:00:00,
2013-06-26 10:05:00,75.2,69.8,29.94,NW,315,0.9,2.2,83,0.00,,,0.00,WUHU216HW,2013-06-26 14:05:00,
2013-06-26 10:10:00,75.6,70.1,29.94,SSW,203,0.2,2.5,83,0.00,,,0.00,WUHU216HW,2013-06-26 14:10:00,
2013-06-26 10:15:00,76.0,70.1,29.93,ESE,113,0.7,2.7,82,0.00,,,0.00,WUHU216HW,2013-06-26 14:15:00,
2013-06-26 10:20:00,76.3,70.5,29.94,SSE,158,1.3,2.7,82,0.00,,,0.00,WUHU216HW,2013-06-26 14:20:00,
2013-06-26 10:25:00,76.7,70.4,29.94,SSE,158,1.1,2.0,81,0.00,,,0.00,WUHU216HW,2013-06-26 14:25:00,
2013-06-26 10:30:00,77.2,70.9,29.94,SE,135,1.1,2.2,81,0.00,,,0.00,WUHU216HW,2013-06-26 14:30:00,
2013-06-26 10:35:00,77.9,70.9,29.94,SE,135,0.2,2.2,79,0.00,,,0.00,WUHU216HW,2013-06-26 14:35:00,
2013-06-26 10:40:00,78.3,71.3,29.94,SSE,158,1.6,1.8,79,0.00,,,0.00,WUHU216HW,2013-06-26 14:40:00,
2013-06-26 10:45:00,78.1,70.7,29.94,ESE,113,0.7,1.8,78,0.00,,,0.00,WUHU216HW,2013-06-26 14:45:00,
2013-06-26 10:50:00,78.1,70.7,29.94,ESE,113,0.0,1.8,78,0.00,,,0.00,WUHU216HW,2013-06-26 14:50:00,
2013-06-26 10:55:00,78.7,71.2,29.94,SSE,158,2.5,2.5,78,0.00,,,0.00,WUHU216HW,2013-06-26 14:55:00,
2013-06-26 11:00:00,78.8,71.4,29.94,ESE,113,0.0,2.5,78,0.00,,,0.00,WUHU216HW,2013-06-26 15:00:00,
2013-06-26 11:05:00,78.8,71.0,29.94,SW,225,1.6,2.5,77,0.00,,,0.00,WUHU216HW,2013-06-26 15:05:00,
2013-06-26 11:10:00,78.7,70.8,29.94,East,90,0.0,1.6,77,0.00,,,0.00,WUHU216HW,2013-06-26 15:10:00,
2013-06-26 11:15:00,78.8,71.0,29.95,East,90,0.0,1.3,77,0.00,,,0.00,WUHU216HW,2013-06-26 15:15:00,
2013-06-26 11:20:00,78.8,70.6,29.95,SW,225,0.2,1.6,76,0.00,,,0.00,WUHU216HW,2013-06-26 15:20:00,
2013-06-26 11:25:00,79.0,70.7,29.94,ENE,68,0.9,1.6,76,0.00,,,0.00,WUHU216HW,2013-06-26 15:25:00,
2013-06-26 11:30:00,79.6,71.3,29.95,SSE,158,0.9,3.1,76,0.00,,,0.00,WUHU216HW,2013-06-26 15:30:00,
2013-06-26 11:35:00,80.3,72.0,29.95,SE,135,0.4,3.1,76,0.00,,,0.00,WUHU216HW,2013-06-26 15:35:00,
2013-06-26 11:41:00,81.0,72.4,29.95,NW,315,1.8,1.8,75,0.00,,,0.00,WUHU216HW,2013-06-26 15:41:00,
2013-06-26 11:46:00,81.4,72.3,29.95,ESE,113,1.8,2.7,74,0.00,,,0.00,WUHU216HW,2013-06-26 15:46:00,
2013-06-26 11:51:00,81.9,72.4,29.95,West,270,1.1,2.7,73,0.00,,,0.00,WUHU216HW,2013-06-26 15:51:00,
2013-06-26 11:56:00,82.1,72.2,29.95,ESE,113,0.7,4.0,72,0.00,,,0.00,WUHU216HW,2013-06-26 15:56:00,
2013-06-26 12:01:00,82.4,70.7,29.96,ESE,113,0.9,4.0,68,0.00,,,0.00,WUHU216HW,2013-06-26 16:01:00,
2013-06-26 12:06:00,82.8,71.6,29.95,WNW,293,0.4,2.5,69,0.00,,,0.00,WUHU216HW,2013-06-26 16:06:00,
2013-06-26 12:11:00,83.0,71.7,29.95,West,270,3.8,3.8,69,0.00,,,0.00,WUHU216HW,2013-06-26 16:11:00,
2013-06-26 12:16:00,83.0,71.7,29.96,NNE,23,1.8,3.8,69,0.00,,,0.00,WUHU216HW,2013-06-26 16:16:00,
2013-06-26 12:21:00,83.0,71.7,29.96,SSE,158,0.2,2.5,69,0.00,,,0.00,WUHU216HW,2013-06-26 16:21:00,
2013-06-26 12:26:00,83.3,71.2,29.95,SE,135,2.5,4.7,67,0.00,,,0.00,WUHU216HW,2013-06-26 16:26:00,
2013-06-26 12:31:00,84.2,72.1,29.95,SE,135,1.1,4.7,67,0.00,,,0.00,WUHU216HW,2013-06-26 16:31:00,
2013-06-26 12:36:00,84.8,72.2,29.95,SSE,158,1.6,1.8,66,0.00,,,0.00,WUHU216HW,2013-06-26 16:36:00,
2013-06-26 12:41:00,85.3,72.7,29.95,West,270,0.7,2.9,66,0.00,,,0.00,WUHU216HW,2013-06-26 16:41:00,
2013-06-26 12:46:00,85.9,72.7,29.95,SSE,158,0.9,2.9,65,0.00,,,0.00,WUHU216HW,2013-06-26 16:46:00,
2013-06-26 12:51:00,86.4,72.3,29.95,SE,135,1.6,3.1,63,0.00,,,0.00,WUHU216HW,2013-06-26 16:51:00,
2013-06-26 12:56:00,86.8,73.1,29.95,ESE,113,0.7,3.6,64,0.00,,,0.00,WUHU216HW,2013-06-26 16:56:00,
2013-06-26 13:01:00,86.6,73.0,29.94,SSE,158,1.3,3.6,64,0.00,,,0.00,WUHU216HW,2013-06-26 17:01:00,
2013-06-26 13:06:00,86.6,72.0,29.94,ENE,68,0.4,2.9,62,0.00,,,0.00,WUHU216HW,2013-06-26 17:06:00,
2013-06-26 13:11:00,86.4,70.9,29.94,NW,315,0.9,2.9,60,0.00,,,0.00,WUHU216HW,2013-06-26 17:11:00,
2013-06-26 13:16:00,85.9,71.4,29.94,NNE,23,0.4,3.4,62,0.00,,,0.00,WUHU216HW,2013-06-26 17:16:00,
2013-06-26 13:21:00,86.0,72.0,29.94,ESE,113,2.7,3.4,63,0.00,,,0.00,WUHU216HW,2013-06-26 17:21:00,
2013-06-26 13:26:00,86.6,72.0,29.94,SE,135,1.8,3.4,62,0.00,,,0.00,WUHU216HW,2013-06-26 17:26:00,
2013-06-26 13:31:00,87.1,71.6,29.94,WNW,293,0.7,3.4,60,0.00,,,0.00,WUHU216HW,2013-06-26 17:31:00,
2013-06-26 13:36:00,86.9,71.9,29.93,SSE,158,3.4,3.4,61,0.00,,,0.00,WUHU216HW,2013-06-26 17:36:00,
2013-06-26 13:41:00,86.9,71.9,29.92,SE,135,1.8,3.4,61,0.00,,,0.00,WUHU216HW,2013-06-26 17:41:00,
2013-06-26 13:46:00,86.9,70.9,29.93,WSW,248,1.3,3.4,59,0.00,,,0.00,WUHU216HW,2013-06-26 17:46:00,
2013-06-26 13:51:00,87.1,71.1,29.92,SSE,158,0.4,3.1,59,0.00,,,0.00,WUHU216HW,2013-06-26 17:51:00,
2013-06-26 13:56:00,87.1,71.1,29.93,WNW,293,0.7,2.0,59,0.00,,,0.00,WUHU216HW,2013-06-26 17:56:00,
2013-06-26 14:01:00,87.5,72.0,29.92,WNW,293,0.2,2.5,60,0.00,,,0.00,WUHU216HW,2013-06-26 18:01:00,
2013-06-26 14:06:00,87.8,72.8,29.92,East,90,0.7,4.0,61,0.00,,,0.00,WUHU216HW,2013-06-26 18:06:00,
2013-06-26 14:11:00,88.4,71.2,29.91,West,270,1.3,4.0,57,0.00,,,0.00,WUHU216HW,2013-06-26 18:11:00,
2013-06-26 14:16:00,88.7,72.1,29.91,ESE,113,2.0,2.9,58,0.00,,,0.00,WUHU216HW,2013-06-26 18:16:00,
2013-06-26 14:21:00,88.9,71.7,29.91,North,0,0.4,2.5,57,0.00,,,0.00,WUHU216HW,2013-06-26 18:21:00,
2013-06-26 14:26:00,88.4,71.7,29.91,WNW,293,0.9,2.5,58,0.00,,,0.00,WUHU216HW,2013-06-26 18:26:00,
2013-06-26 14:31:00,88.2,72.2,29.90,NW,315,0.9,2.5,59,0.00,,,0.00,WUHU216HW,2013-06-26 18:31:00,
2013-06-26 14:36:00,88.6,72.5,29.90,East,90,1.3,2.5,59,0.00,,,0.00,WUHU216HW,2013-06-26 18:36:00,
2013-06-26 14:41:00,88.9,71.2,29.90,West,270,1.1,2.5,56,0.00,,,0.00,WUHU216HW,2013-06-26 18:41:00,
2013-06-26 14:54:00,89.3,72.0,29.90,NW,315,0.2,0.2,57,0.00,,,0.00,WUHU216HW,2013-06-26 18:54:00,
2013-06-26 14:59:00,89.3,72.0,29.89,South,180,0.4,2.0,57,0.00,,,0.00,WUHU216HW,2013-06-26 18:59:00,
2013-06-26 15:04:00,89.3,71.5,29.89,SE,135,1.1,2.9,56,0.00,,,0.00,WUHU216HW,2013-06-26 19:04:00,
2013-06-26 15:09:00,89.3,71.5,29.89,NNW,338,0.4,2.9,56,0.00,,,0.00,WUHU216HW,2013-06-26 19:09:00,
2013-06-26 15:14:00,89.1,70.8,29.89,East,90,0.2,2.5,55,0.00,,,0.00,WUHU216HW,2013-06-26 19:14:00,
2013-06-26 15:19:00,89.3,71.5,29.89,SSW,203,1.1,2.5,56,0.00,,,0.00,WUHU216HW,2013-06-26 19:19:00,
2013-06-26 15:24:00,89.6,71.3,29.89,SE,135,0.9,3.4,55,0.00,,,0.00,WUHU216HW,2013-06-26 19:24:00,
2013-06-26 15:29:00,89.3,71.5,29.89,NNW,338,2.0,3.4,56,0.00,,,0.00,WUHU216HW,2013-06-26 19:29:00,
2013-06-26 15:34:00,88.9,71.2,29.88,NNW,338,0.2,3.4,56,0.00,,,0.00,WUHU216HW,2013-06-26 19:34:00,
2013-06-26 15:39:00,88.7,71.0,29.88,South,180,1.1,4.0,56,0.00,,,0.00,WUHU216HW,2013-06-26 19:39:00,
2013-06-26 15:44:00,89.1,71.4,29.88,NW,315,0.7,4.0,56,0.00,,,0.00,WUHU216HW,2013-06-26 19:44:00,
2013-06-26 15:49:00,88.9,71.7,29.88,ENE,68,1.1,2.7,57,0.00,,,0.00,WUHU216HW,2013-06-26 19:49:00,
2013-06-26 15:54:00,89.3,71.5,29.87,ESE,113,0.4,3.4,56,0.00,,,0.00,WUHU216HW,2013-06-26 19:54:00,
2013-06-26 15:59:00,89.3,71.5,29.87,East,90,1.3,3.4,56,0.00,,,0.00,WUHU216HW,2013-06-26 19:59:00,
2013-06-26 16:04:00,89.6,70.7,29.87,SW,225,1.8,3.4,54,0.00,,,0.00,WUHU216HW,2013-06-26 20:04:00,
2013-06-26 16:09:00,89.8,72.0,29.87,WSW,248,2.2,2.9,56,0.00,,,0.00,WUHU216HW,2013-06-26 20:09:00,
2013-06-26 16:14:00,89.5,71.1,29.86,WSW,248,3.6,6.3,55,0.00,,,0.00,WUHU216HW,2013-06-26 20:14:00,
2013-06-26 16:19:00,89.3,71.5,29.86,ESE,113,0.7,6.3,56,0.00,,,0.00,WUHU216HW,2013-06-26 20:19:00,
2013-06-26 16:24:00,89.3,70.9,29.86,West,270,1.6,4.5,55,0.00,,,0.00,WUHU216HW,2013-06-26 20:24:00,
2013-06-26 16:29:00,89.3,71.5,29.86,SE,135,0.9,1.8,56,0.00,,,0.00,WUHU216HW,2013-06-26 20:29:00,
2013-06-26 16:34:00,89.6,71.3,29.86,ESE,113,1.8,3.4,55,0.00,,,0.00,WUHU216HW,2013-06-26 20:34:00,
2013-06-26 16:39:00,89.3,70.9,29.86,SSW,203,1.8,4.3,55,0.00,,,0.00,WUHU216HW,2013-06-26 20:39:00,
2013-06-26 16:44:00,88.7,71.0,29.86,West,270,1.8,4.3,56,0.00,,,0.00,WUHU216HW,2013-06-26 20:44:00,
2013-06-26 16:49:00,88.6,71.4,29.86,SSE,158,1.1,4.0,57,0.00,,,0.00,WUHU216HW,2013-06-26 20:49:00,
2013-06-26 16:54:00,88.6,71.4,29.85,SE,135,2.0,4.0,57,0.00,,,0.00,WUHU216HW,2013-06-26 20:54:00,
2013-06-26 16:59:00,88.9,71.7,29.85,ESE,113,1.1,3.4,57,0.00,,,0.00,WUHU216HW,2013-06-26 20:59:00,
2013-06-26 17:04:00,89.3,72.0,29.85,ESE,113,3.8,3.8,57,0.00,,,0.00,WUHU216HW,2013-06-26 21:04:00,
2013-06-26 17:09:00,88.7,71.6,29.84,ENE,68,0.9,3.8,57,0.00,,,0.00,WUHU216HW,2013-06-26 21:09:00,
2013-06-26 17:14:00,88.0,71.5,29.84,West,270,1.6,3.8,58,0.00,,,0.00,WUHU216HW,2013-06-26 21:14:00,
2013-06-26 17:19:00,88.2,71.7,29.84,South,180,4.0,4.0,58,0.00,,,0.00,WUHU216HW,2013-06-26 21:19:00,
2013-06-26 17:24:00,88.6,71.9,29.84,SSE,158,2.9,4.7,58,0.00,,,0.00,WUHU216HW,2013-06-26 21:24:00,
2013-06-26 17:29:00,88.6,71.9,29.85,SSW,203,2.0,5.4,58,0.00,,,0.00,WUHU216HW,2013-06-26 21:29:00,
2013-06-26 17:34:00,88.2,71.7,29.84,NNE,23,0.7,5.4,58,0.00,,,0.00,WUHU216HW,2013-06-26 21:34:00,
2013-06-26 17:39:00,87.8,71.3,29.84,South,180,1.8,2.5,58,0.00,,,0.00,WUHU216HW,2013-06-26 21:39:00,
2013-06-26 17:44:00,88.0,71.5,29.85,SSW,203,1.3,4.0,58,0.00,,,0.00,WUHU216HW,2013-06-26 21:44:00,
2013-06-26 17:49:00,87.8,71.3,29.85,WSW,248,0.7,4.0,58,0.00,,,0.00,WUHU216HW,2013-06-26 21:49:00,
2013-06-26 17:54:00,87.5,70.9,29.84,SSE,158,1.8,4.0,58,0.00,,,0.00,WUHU216HW,2013-06-26 21:54:00,
2013-06-26 17:59:00,87.1,72.1,29.85,WNW,293,1.3,4.0,61,0.00,,,0.00,WUHU216HW,2013-06-26 21:59:00,
2013-06-26 18:04:00,85.9,65.7,29.85,WSW,248,2.2,7.6,51,0.00,,,0.00,WUHU216HW,2013-06-26 22:04:00,
2013-06-26 18:09:00,83.9,65.4,29.85,South,180,0.9,7.6,54,0.00,,,0.00,WUHU216HW,2013-06-26 22:09:00,
2013-06-26 18:14:00,82.3,64.4,29.85,SE,135,3.8,4.7,55,0.00,,,0.00,WUHU216HW,2013-06-26 22:14:00,
2013-06-26 18:19:00,81.0,65.4,29.85,SSW,203,1.8,4.7,59,0.00,,,0.00,WUHU216HW,2013-06-26 22:19:00,
2013-06-26 18:24:00,79.6,66.3,29.85,SW,225,0.9,4.3,64,0.00,,,0.00,WUHU216HW,2013-06-26 22:24:00,
2013-06-26 18:29:00,78.3,65.1,29.84,SE,135,0.4,3.6,64,0.00,,,0.00,WUHU216HW,2013-06-26 22:29:00,
2013-06-26 18:34:00,77.6,65.4,29.84,SE,135,0.4,1.1,66,0.00,,,0.00,WUHU216HW,2013-06-26 22:34:00,
2013-06-26 18:39:00,76.9,65.5,29.83,ESE,113,0.7,1.1,68,0.00,,,0.00,WUHU216HW,2013-06-26 22:39:00,
2013-06-26 18:44:00,76.9,66.4,29.83,ESE,113,0.7,0.9,70,0.00,,,0.00,WUHU216HW,2013-06-26 22:44:00,
2013-06-26 18:53:00,76.3,65.9,29.84,ESE,113,0.4,0.9,70,0.00,,,0.00,WUHU216HW,2013-06-26 22:53:00,
2013-06-26 18:58:00,76.0,66.3,29.84,SSE,158,0.7,1.1,72,0.00,,,0.00,WUHU216HW,2013-06-26 22:58:00,
2013-06-26 19:03:00,76.0,67.5,29.84,East,90,0.4,1.1,75,0.00,,,0.00,WUHU216HW,2013-06-26 23:03:00,
2013-06-26 19:08:00,75.8,66.5,29.84,WSW,248,0.7,1.3,73,0.00,,,0.00,WUHU216HW,2013-06-26 23:08:00,
2013-06-26 19:13:00,75.4,66.2,29.85,SSE,158,0.4,1.3,73,0.00,,,0.00,WUHU216HW,2013-06-26 23:13:00,
2013-06-26 19:18:00,75.1,66.3,29.85,SE,135,0.2,1.1,74,0.00,,,0.00,WUHU216HW,2013-06-26 23:18:00,
2013-06-26 19:23:00,75.2,67.1,29.85,SSE,158,1.1,1.1,76,0.00,,,0.00,WUHU216HW,2013-06-26 23:23:00,
2013-06-26 19:28:00,75.6,67.2,29.84,SSE,158,1.1,1.8,75,0.00,,,0.00,WUHU216HW,2013-06-26 23:28:00,
2013-06-26 19:33:00,75.2,66.8,29.83,SSE,158,0.4,1.8,75,0.00,,,0.00,WUHU216HW,2013-06-26 23:33:00,
2013-06-26 19:38:00,75.1,66.6,29.83,SW,225,0.2,1.8,75,0.00,,,0.00,WUHU216HW,2013-06-26 23:38:00,
2013-06-26 19:43:00,74.9,66.9,29.83,SE,135,1.1,1.6,76,0.00,,,0.00,WUHU216HW,2013-06-26 23:43:00,
2013-06-26 19:48:00,74.9,67.2,29.83,South,180,1.1,2.5,77,0.00,,,0.00,WUHU216HW,2013-06-26 23:48:00,
2013-06-26 19:53:00,75.2,67.6,29.83,SE,135,1.1,2.5,77,0.00,,,0.00,WUHU216HW,2013-06-26 23:53:00,
2013-06-26 19:58:00,75.2,67.1,29.84,SE,135,0.7,2.2,76,0.00,,,0.00,WUHU216HW,2013-06-26 23:58:00,
2013-06-26 20:03:00,74.9,67.2,29.85,SSW,203,1.8,3.1,77,0.00,,,0.00,WUHU216HW,2013-06-27 00:03:00,
2013-06-26 20:08:00,74.3,66.7,29.84,South,180,0.7,4.0,77,0.00,,,0.00,WUHU216HW,2013-06-27 00:08:00,
2013-06-26 20:13:00,74.0,66.7,29.84,East,90,1.1,4.0,78,0.00,,,0.00,WUHU216HW,2013-06-27 00:13:00,
2013-06-26 20:18:00,74.2,67.3,29.83,SE,135,0.7,2.2,79,0.00,,,0.00,WUHU216HW,2013-06-27 00:18:00,
2013-06-26 20:23:00,74.2,66.9,29.83,ESE,113,2.0,2.2,78,0.00,,,0.00,WUHU216HW,2013-06-27 00:23:00,
2013-06-26 20:28:00,74.0,66.7,29.84,SSE,158,0.0,2.0,78,0.00,,,0.00,WUHU216HW,2013-06-27 00:28:00,
2013-06-26 20:33:00,73.6,66.4,29.84,SE,135,1.1,1.6,78,0.00,,,0.00,WUHU216HW,2013-06-27 00:33:00,
2013-06-26 20:38:00,73.3,66.1,29.84,ESE,113,0.9,2.9,78,0.00,,,0.00,WUHU216HW,2013-06-27 00:38:00,
2013-06-26 20:43:00,73.1,65.9,29.84,WSW,248,0.4,2.9,78,0.00,,,0.00,WUHU216HW,2013-06-27 00:43:00,
2013-06-26 20:48:00,72.9,66.1,29.85,SSW,203,0.4,1.6,79,0.00,,,0.00,WUHU216HW,2013-06-27 00:48:00,
2013-06-26 20:53:00,72.7,66.2,29.84,SE,135,0.4,1.3,80,0.00,,,0.00,WUHU216HW,2013-06-27 00:53:00,
2013-06-26 20:58:00,72.9,66.8,29.85,SE,135,0.2,1.1,81,0.00,,,0.00,WUHU216HW,2013-06-27 00:58:00,
2013-06-26 21:03:00,73.1,66.6,29.84,SE,135,0.4,1.1,80,0.00,,,0.00,WUHU216HW,2013-06-27 01:03:00,
2013-06-26 21:08:00,72.9,66.4,29.83,SE,135,0.4,0.9,80,0.00,,,0.00,WUHU216HW,2013-06-27 01:08:00,
2013-06-26 21:13:00,72.7,66.2,29.84,SSE,158,0.0,0.7,80,0.00,,,0.00,WUHU216HW,2013-06-27 01:13:00,
2013-06-26 21:18:00,72.5,66.4,29.83,SSE,158,0.0,0.7,81,0.00,,,0.00,WUHU216HW,2013-06-27 01:18:00,
2013-06-26 21:23:00,72.4,65.9,29.83,SE,135,0.4,0.4,80,0.00,,,0.00,WUHU216HW,2013-06-27 01:23:00,
2013-06-26 21:28:00,72.4,65.9,29.83,SE,135,0.4,1.1,80,0.00,,,0.00,WUHU216HW,2013-06-27 01:28:00,
2013-06-26 21:33:00,72.4,65.9,29.83,SE,135,0.0,1.1,80,0.00,,,0.00,WUHU216HW,2013-06-27 01:33:00,
2013-06-26 21:38:00,72.2,65.7,29.83,SE,135,0.0,1.1,80,0.00,,,0.00,WUHU216HW,2013-06-27 01:38:00,
2013-06-26 21:43:00,72.2,66.1,29.83,SE,135,0.0,1.1,81,0.00,,,0.00,WUHU216HW,2013-06-27 01:43:00,
2013-06-26 21:48:00,72.0,65.9,29.83,SE,135,0.0,0.0,81,0.00,,,0.00,WUHU216HW,2013-06-27 01:48:00,
2013-06-26 21:53:00,72.0,65.9,29.83,SE,135,0.0,0.0,81,0.00,,,0.00,WUHU216HW,2013-06-27 01:53:00,
2013-06-26 21:58:00,71.8,65.7,29.83,SE,135,0.0,0.0,81,0.00,,,0.00,WUHU216HW,2013-06-27 01:58:00,
2013-06-26 22:03:00,71.6,65.9,29.83,SE,135,0.0,0.2,82,0.00,,,0.00,WUHU216HW,2013-06-27 02:03:00,
2013-06-26 22:08:00,71.6,65.9,29.83,SE,135,0.0,0.2,82,0.00,,,0.00,WUHU216HW,2013-06-27 02:08:00,
2013-06-26 22:13:00,71.6,65.9,29.83,SE,135,0.2,0.4,82,0.00,,,0.00,WUHU216HW,2013-06-27 02:13:00,
2013-06-26 22:18:00,71.6,65.9,29.83,SE,135,0.2,1.8,82,0.00,,,0.00,WUHU216HW,2013-06-27 02:18:00,
2013-06-26 22:23:00,72.2,67.1,29.83,SE,135,0.4,1.8,84,0.00,,,0.00,WUHU216HW,2013-06-27 02:23:00,
2013-06-26 22:28:00,72.4,66.9,29.83,ESE,113,0.0,1.1,83,0.00,,,0.00,WUHU216HW,2013-06-27 02:28:00,
2013-06-26 22:33:00,72.4,66.6,29.83,East,90,0.0,0.9,82,0.00,,,0.00,WUHU216HW,2013-06-27 02:33:00,
2013-06-26 22:38:00,72.2,66.4,29.83,East,90,0.0,0.0,82,0.00,,,0.00,WUHU216HW,2013-06-27 02:38:00,
2013-06-26 22:43:00,72.0,66.3,29.83,East,90,0.0,0.0,82,0.00,,,0.00,WUHU216HW,2013-06-27 02:43:00,
2013-06-26 22:48:00,71.8,66.1,29.83,East,90,0.0,0.0,82,0.00,,,0.00,WUHU216HW,2013-06-27 02:48:00,
2013-06-26 22:53:00,71.6,66.2,29.84,East,90,0.0,0.0,83,0.00,,,0.00,WUHU216HW,2013-06-27 02:53:00,
2013-06-26 22:58:00,71.6,66.2,29.84,SSE,158,0.0,0.4,83,0.00,,,0.00,WUHU216HW,2013-06-27 02:58:00,
2013-06-26 23:03:00,71.5,66.0,29.84,SE,135,0.2,0.4,83,0.00,,,0.00,WUHU216HW,2013-06-27 03:03:00,
2013-06-26 23:08:00,71.5,66.0,29.84,SE,135,0.0,0.4,83,0.00,,,0.00,WUHU216HW,2013-06-27 03:08:00,
2013-06-26 23:13:00,71.3,65.8,29.84,SE,135,0.4,0.4,83,0.00,,,0.00,WUHU216HW,2013-06-27 03:13:00,
2013-06-26 23:18:00,71.3,65.8,29.85,SE,135,0.0,0.4,83,0.00,,,0.00,WUHU216HW,2013-06-27 03:18:00,
2013-06-26 23:23:00,71.6,66.9,29.85,WSW,248,0.4,0.7,85,0.00,,,0.00,WUHU216HW,2013-06-27 03:23:00,
2013-06-26 23:28:00,71.8,66.7,29.85,SW,225,0.2,0.7,84,0.00,,,0.00,WUHU216HW,2013-06-27 03:28:00,
2013-06-26 23:33:00,71.6,66.2,29.85,SE,135,0.0,0.4,83,0.00,,,0.00,WUHU216HW,2013-06-27 03:33:00,
2013-06-26 23:38:00,71.5,66.0,29.85,ESE,113,0.0,0.4,83,0.00,,,0.00,WUHU216HW,2013-06-27 03:38:00,
2013-06-26 23:43:00,71.3,65.8,29.85,SE,135,0.4,0.4,83,0.00,,,0.00,WUHU216HW,2013-06-27 03:43:00,
2013-06-26 23:48:00,71.1,65.6,29.84,SE,135,0.4,0.4,83,0.00,,,0.00,WUHU216HW,2013-06-27 03:48:00,
2013-06-26 23:53:00,71.1,66.0,29.84,SE,135,0.0,0.7,84,0.00,,,0.00,WUHU216HW,2013-06-27 03:53:00,
2013-06-26 23:58:00,70.9,65.8,29.84,ESE,113,0.0,0.7,84,0.00,,,0.00,WUHU216HW,2013-06-27 03:58:00,